ACA403 CYVR-CYUL

Flight info

Callsign ACA403
Flight time N/A
Altitude 39000
Route ALNOD DCT IKNIX DCT 49N110W DCT HML DCT AGLIN DCT BEMOG LFLER7
Aircraft A333/H-SDE3GHIJ2J3J5M1RVWXY/LB2D1

Departure

Time 2026-05-06 20:37
Airport Vancouver International Airport (CYVR)

Arrival

Time N/A
Airport Montreal / Pierre Elliott Trudeau International Airport (CYUL)
Time Latitude Longitude Altitude Speed Heading
2026-05-06 20:15 49.19815 -123.17670 22 ft 0 kts 183°
2026-05-06 20:24 49.19826 -123.17669 22 ft 3 kts 183°
2026-05-06 20:24 49.19846 -123.17667 23 ft 3 kts 183°
2026-05-06 20:24 49.19867 -123.17666 23 ft 3 kts 183°
2026-05-06 20:25 49.19887 -123.17664 22 ft 3 kts 183°
2026-05-06 20:25 49.19905 -123.17663 24 ft 3 kts 192°
2026-05-06 20:25 49.19920 -123.17653 25 ft 3 kts 243°
2026-05-06 20:25 49.19924 -123.17627 24 ft 3 kts 278°
2026-05-06 20:26 49.19921 -123.17601 25 ft 1 kts 279°
2026-05-06 20:26 49.19920 -123.17596 25 ft 0 kts 279°
2026-05-06 20:28 49.19921 -123.17597 25 ft 1 kts 279°
2026-05-06 20:28 49.19923 -123.17621 24 ft 6 kts 279°
2026-05-06 20:29 49.19934 -123.17722 22 ft 13 kts 279°
2026-05-06 20:29 49.19966 -123.17841 22 ft 12 kts 300°
2026-05-06 20:29 49.19990 -123.17966 23 ft 13 kts 280°
2026-05-06 20:29 49.20005 -123.18104 24 ft 14 kts 279°
2026-05-06 20:30 49.20021 -123.18249 21 ft 14 kts 279°
2026-05-06 20:30 49.19989 -123.18519 24 ft 14 kts 201°
2026-05-06 20:30 49.19892 -123.18551 23 ft 15 kts 189°
2026-05-06 20:31 49.19788 -123.18579 23 ft 15 kts 197°
2026-05-06 20:31 49.19695 -123.18664 23 ft 16 kts 205°
2026-05-06 20:31 49.19590 -123.18702 23 ft 16 kts 191°
2026-05-06 20:31 49.19482 -123.18729 21 ft 16 kts 189°
2026-05-06 20:32 49.19392 -123.18806 23 ft 15 kts 243°
2026-05-06 20:32 49.19366 -123.18965 22 ft 16 kts 261°
2026-05-06 20:32 49.19346 -123.19132 21 ft 16 kts 259°
2026-05-06 20:32 49.19324 -123.19307 21 ft 18 kts 259°
2026-05-06 20:33 49.19300 -123.19490 20 ft 17 kts 259°
2026-05-06 20:33 49.19280 -123.19673 24 ft 18 kts 260°
2026-05-06 20:33 49.19260 -123.19850 20 ft 15 kts 260°
2026-05-06 20:33 49.19240 -123.20008 22 ft 15 kts 258°
2026-05-06 20:34 49.19218 -123.20171 20 ft 16 kts 258°
2026-05-06 20:34 49.19196 -123.20340 22 ft 16 kts 258°
2026-05-06 20:34 49.19180 -123.20479 23 ft 10 kts 267°
2026-05-06 20:34 49.19189 -123.20591 20 ft 11 kts 280°
2026-05-06 20:35 49.19202 -123.20710 20 ft 12 kts 274°
2026-05-06 20:35 49.19167 -123.20807 19 ft 11 kts 207°
2026-05-06 20:35 49.19095 -123.20842 19 ft 11 kts 189°
2026-05-06 20:35 49.19045 -123.20836 19 ft 11 kts 160°
2026-05-06 20:36 49.19007 -123.20749 24 ft 9 kts 101°
2026-05-06 20:36 49.18995 -123.20642 23 ft 18 kts 100°
2026-05-06 20:36 49.18940 -123.20156 22 ft 75 kts 99°
2026-05-06 20:36 49.18767 -123.18620 19 ft 143 kts 100°
2026-05-06 20:37 49.18633 -123.17507 93 ft 168 kts 99°
2026-05-06 20:37 49.18427 -123.15613 487 ft 192 kts 99°
2026-05-06 20:37 49.18174 -123.13497 1059 ft 214 kts 102°
2026-05-06 20:37 49.17904 -123.11108 1460 ft 239 kts 102°
2026-05-06 20:38 49.17638 -123.08506 1935 ft 256 kts 101°
2026-05-06 20:38 49.17395 -123.05795 2702 ft 257 kts 100°
2026-05-06 20:38 49.17177 -123.03116 3536 ft 257 kts 99°
2026-05-06 20:38 49.16959 -123.00383 4279 ft 262 kts 98°
2026-05-06 20:39 49.16737 -122.97591 4991 ft 268 kts 97°
2026-05-06 20:39 49.16505 -122.94703 5673 ft 277 kts 98°
2026-05-06 20:39 49.16265 -122.91745 6366 ft 284 kts 97°
2026-05-06 20:39 49.16018 -122.88722 7077 ft 289 kts 97°
2026-05-06 20:40 49.15763 -122.85640 7811 ft 294 kts 97°